Orbital Elements at Epoch 2459200.5 (2020-Dec-17.0) TDB
Reference: JPL 28 (heliocentric ecliptic J2000)
Element | Value | Uncertainty (1-sigma) | Units |
e | .2321225875034858 | 4.4257e-08 | |
a | 2.326055214851863 | 6.6018e-09 | au |
q | 1.786125259704472 | 1.0307e-07 | au |
i | 4.741765614215066 | 3.4589e-06 | deg |
node | 139.5415639266867 | 5.0823e-05 | deg |
peri | 243.6201790533096 | 5.1384e-05 | deg |
M | 117.2971485432229 | 6.1352e-06 | deg |
tp | 2458778.304684562495 (2019-Oct-21.80468456) | 2.2339e-05 | TDB |
period | 1295.771597563557 3.55 | 5.5165e-06 1.51e-08 | d yr |
n | .2778267409757313 | 1.1828e-09 | deg/d |
Q | 2.865985169999254 | 8.1342e-09 | au |
|
| | Orbit Determination Parameters
Additional Information
|